Location: Conjunto Santa Maria
(19.9513°S, 43.9599°W)
Time: 13:31:36
(UTC+00:00)

MOS 1 - Pass Details

Date: 21 January 2021
Orbit: 878 x 891 km, 99.1° (Epoch: 04 March)

Event Time Altitude Azimuth Distance (km) Brightness Sun altitude
Rises 23:43:09 0° 168° (SSE) 3,498 7.7 -26.2°
Reaches altitude 10° 23:45:33 10° 169° (SSE) 2,555 7.0 -26.7°
Maximum altitude 23:51:15 85° 256° (WSW) 894 4.2 -27.7°
Enters shadow 23:52:09 65° 336° (NNW) 973 4.3 -27.9°
